Location: Unspecified
(0.0000°N, 0.0000°E)
Time: 09:34:46
(UTC+02:00)

ARIANE DEB (SPELDA) - Visible Passes

Search period start: 02 June 2015 00:00
Search period end: 12 June 2015 00:00
Orbit: 314 x 33184 km, 3.5° (Epoch: 31 May)

Date Brightness Start Highest point End Pass type
(mag) Time Alt. Az. Time Alt. Az. Time Alt. Az.
02 Jun 8.1 01:08:12 10° W 09:55:22 83° S 10:14:28 10° E visible
02 Jun 5.0 20:19:38 10° W 20:24:59 75° N 05:09:15 10° E visible
04 Jun 7.6 01:48:50 10° W 10:40:00 83° S 10:53:16 10° E visible
04 Jun 5.7 20:57:53 10° W 21:05:04 78° N 05:54:44 10° E visible
06 Jun 7.1 02:30:12 10° W 11:22:01 82° S 11:31:34 10° E visible
06 Jun 6.3 21:35:57 10° W 21:45:42 81° N 06:37:24 10° E visible
08 Jun 6.5 03:12:49 10° W 12:02:23 82° S 12:09:26 10° E visible
08 Jun 6.9 22:13:56 10° W 22:27:25 83° N 07:18:17 10° E visible
10 Jun 6.0 03:57:41 10° W 12:41:39 82° S 12:46:56 10° E visible
10 Jun 7.5 22:51:52 10° W 23:11:08 85° N 07:57:54 10° E visible
11 Jun 3.4 18:06:09 10° WNW 18:08:44 60° N 18:17:23 10° E daylight
11 Jun 3.4 18:06:10 10° WNW 18:08:44 60° N 18:17:24 10° E daylight
11 Jun 3.4 18:06:10 10° WNW 18:08:44 60° N 18:17:23 10° E daylight
11 Jun 3.4 18:06:10 10° WNW 18:08:43 60° N 18:17:23 10° E daylight
